Mackay Observation History
Time Wind Speed Temp Pressure Rel. Hum Rain
14/10:00am SSE 12-19 kts 23.3°c 1015.3 hPa 52% 0.2mm
14/09:30am SSE 12-19 kts 22.8°c 1015.2 hPa 52% 0.0mm
14/09:00am SSE 13-20 kts 22.2°c 1015.0 hPa 54% 0.0mm
14/08:30am S 12-19 kts 21.7°c 1014.7 hPa 57% 0.0mm
14/08:00am S 12-19 kts 21.1°c 1014.4 hPa 65% 0.0mm
14/07:30am S 12-19 kts 20.4°c 1014.1 hPa 76% 0.0mm
14/07:00am S 10-18 kts 19.9°c 1013.7 hPa 90% 0.0mm
14/06:30am S 6-11 kts 19.8°c 1013.3 hPa 100% 0.0mm
14/06:24am S 7-9 kts 19.8°c 1013.3 hPa 100% 0.0mm
14/06:02am SSW 7-8 kts 19.6°c 1013.0 hPa 100% 0.0mm
14/06:00am SSW 7-8 kts 19.6°c 1013.0 hPa 100% 0.0mm
14/05:30am SSW 7-8 kts 19.4°c 1012.5 hPa 99% 0.0mm
14/05:00am SW 6-7 kts 19.5°c 1012.1 hPa 99% 0.0mm
14/04:30am SW 7-8 kts 19.6°c 1011.9 hPa 98% 0.0mm
14/04:00am SW 6-7 kts 20.0°c 1011.8 hPa 99% 0.0mm
14/03:30am SW 6-8 kts 20.0°c 1011.6 hPa 99% 0.0mm
14/03:00am SW 7-8 kts 20.0°c 1011.5 hPa 99% 0.0mm
14/02:30am SSW 6-8 kts 20.1°c 1011.5 hPa 98% 0.0mm
14/02:00am SSW 6-8 kts 20.5°c 1011.6 hPa 99% 0.0mm
14/01:30am SW 6-8 kts 20.8°c 1011.8 hPa 98% 0.0mm
14/01:00am SSW 6-7 kts 20.9°c 1012.0 hPa 99% 0.0mm
14/12:30am SSW 6-7 kts 21.1°c 1012.0 hPa 98% 0.0mm
14/12:00am SW 5-8 kts 21.3°c 1012.4 hPa 98% 0.0mm
Time Wind Speed Temp Pressure Rel. Hum Rain
13/11:30pm SW 5-7 kts 21.3°c 1012.5 hPa 98% 0.0mm
13/11:00pm SW 5-6 kts 21.4°c 1012.5 hPa 97% 0.0mm
13/10:30pm SW 5-6 kts 21.6°c 1012.6 hPa 96% 0.0mm
13/10:00pm SW 5-6 kts 22.0°c 1012.6 hPa 97% 0.0mm
13/09:54pm SW 5-6 kts 22.1°c 1012.6 hPa 97% 0.0mm
13/09:30pm SW 5-6 kts 22.5°c 1012.6 hPa 96% 0.0mm
13/09:24pm SSW 4-6 kts 22.6°c 1012.6 hPa 97% 0.0mm
13/09:16pm SSE 4-5 kts 22.8°c 1012.6 hPa 97% 0.0mm
13/09:00pm S 4-5 kts 22.9°c 1012.7 hPa 96% 0.0mm
13/08:30pm SSE 3-5 kts 23.3°c 1012.4 hPa 96% 0.0mm
13/08:25pm SSE 3-4 kts 23.2°c 1012.4 hPa 96% 0.0mm
13/08:00pm SE 3-5 kts 23.2°c 1012.1 hPa 94% 0.0mm
13/07:30pm SE 4-6 kts 23.4°c 1011.8 hPa 94% 0.0mm
13/07:00pm SE 4-5 kts 23.5°c 1011.7 hPa 92% 0.0mm
13/06:30pm ESE 4-6 kts 23.5°c 1011.4 hPa 90% 0.0mm
13/06:00pm ESE 5-7 kts 23.8°c 1011.2 hPa 89% 0.0mm
13/05:30pm ESE 5-8 kts 23.9°c 1011.0 hPa 89% 0.0mm
13/05:00pm ESE 7-9 kts 24.2°c 1010.7 hPa 86% 0.0mm
13/04:30pm ESE 6-10 kts 24.8°c 1010.5 hPa 82% 0.0mm
13/04:00pm SE 6-10 kts 25.2°c 1010.5 hPa 81% 0.0mm
13/03:30pm SE 7-11 kts 25.5°c 1010.5 hPa 80% 0.0mm
13/03:00pm SE 7-12 kts 25.5°c 1010.4 hPa 81% 0.0mm
13/02:30pm ESE 6-10 kts 25.4°c 1010.6 hPa 81% 0.0mm
13/02:00pm ESE 7-11 kts 25.8°c 1010.8 hPa 79% 0.0mm
13/01:30pm ESE 8-11 kts 25.9°c 1011.1 hPa 76% 0.0mm
13/01:00pm ESE 8-11 kts 25.8°c 1011.4 hPa 76% 0.0mm
13/12:30pm SE 6-9 kts 26.0°c 1011.8 hPa 79% 0.0mm
13/12:00pm SE 7-11 kts 26.4°c 1012.3 hPa 75% 0.0mm
13/11:30am SE 8-12 kts 26.0°c 1012.7 hPa 76% 0.0mm
13/11:00am SE 8-12 kts 26.0°c 1013.1 hPa 80% 0.0mm
13/10:30am SE 8-12 kts 25.7°c 1013.3 hPa 77% 0.0mm
13/10:00am SSE 7-12 kts 25.6°c 1013.4 hPa 81% 0.0mm
13/09:52am SSE 8-13 kts 25.3°c 1013.5 hPa 81% 0.0mm
13/09:30am SSE 9-13 kts 24.9°c 1013.6 hPa 85% 0.0mm
13/09:00am S 7-10 kts 24.6°c 1013.6 hPa 85% 0.0mm
13/08:56am S 7-10 kts 24.4°c 1013.6 hPa 86% 0.0mm
13/08:48am S 7-10 kts 23.9°c 1013.6 hPa 85% 0.0mm
13/08:30am S 7-13 kts 23.5°c 1013.6 hPa 88% 0.0mm
13/08:16am SSW 6-8 kts 23.0°c 1013.6 hPa 90% 0.0mm
13/08:00am SW 6-9 kts 22.4°c 1013.5 hPa 92% 0.0mm
13/07:30am SW 6-7 kts 20.9°c 1013.2 hPa 97% 0.0mm
13/07:00am SSW 6-8 kts 20.9°c 1013.0 hPa 98% 0.0mm
13/06:30am SSW 6-7 kts 20.7°c 1012.6 hPa 98% 0.0mm
13/06:00am SW 5-6 kts 20.6°c 1012.3 hPa 98% 0.0mm
13/05:47am SW 5-6 kts 20.5°c 1012.1 hPa 98% 0.0mm
13/05:30am SSW 5-6 kts 20.3°c 1011.8 hPa 97% 0.0mm
13/05:29am SSW 5-6 kts 20.4°c 1011.8 hPa 97% 0.0mm
13/05:19am SSW 5-7 kts 20.4°c 1011.7 hPa 97% 0.0mm
13/05:00am SSW 5-7 kts 20.8°c 1011.5 hPa 98% 0.0mm
13/04:30am SW 5-7 kts 21.0°c 1011.5 hPa 99% 0.0mm
13/04:00am SW 6-8 kts 21.0°c 1011.2 hPa 99% 0.0mm
13/03:30am SW 6-7 kts 20.8°c 1011.2 hPa 99% 0.0mm
13/03:00am SW 6-8 kts 20.9°c 1011.4 hPa 99% 0.0mm
13/02:52am SW 6-7 kts 20.8°c 1011.4 hPa 99% 0.0mm
13/02:30am SW 6-8 kts 20.9°c 1011.6 hPa 98% 0.0mm
13/02:00am WSW 5-6 kts 20.9°c 1011.9 hPa 98% 0.0mm
13/01:30am WSW 5-6 kts 20.8°c 1012.2 hPa 97% 0.0mm
13/01:00am SW 5-7 kts 21.0°c 1012.4 hPa 97% 0.0mm
13/12:33am SW 6-8 kts 21.2°c 1012.5 hPa 96% 0.0mm
13/12:30am SW 6-8 kts 21.2°c 1012.6 hPa 96% 0.0mm
13/12:00am SSW 7-8 kts 21.4°c 1012.8 hPa 96% 0.0mm
Time Wind Speed Temp Pressure Rel. Hum Rain
12/11:30pm SSW 6-8 kts 21.5°c 1013.0 hPa 97% 0.0mm
12/11:00pm SW 6-7 kts 21.8°c 1013.1 hPa 97% 0.0mm
12/10:53pm SW 6-7 kts 21.8°c 1013.1 hPa 97% 0.0mm
12/10:30pm SSW 5-6 kts 21.9°c 1013.4 hPa 96% 0.0mm
12/10:19pm SW 5-6 kts 22.1°c 1013.5 hPa 96% 0.0mm
12/10:00pm SSW 4-5 kts 22.4°c 1013.5 hPa 97% 0.0mm
12/09:38pm SSW 4-5 kts 22.5°c 1013.5 hPa 97% 0.0mm
12/09:30pm S 4-5 kts 22.4°c 1013.6 hPa 97% 0.0mm
12/09:00pm SSE 5-6 kts 22.6°c 1013.6 hPa 96% 0.0mm
12/08:30pm SSE 4-5 kts 22.7°c 1013.6 hPa 96% 0.0mm
12/08:00pm SSE 4-5 kts 22.9°c 1013.4 hPa 95% 0.0mm
12/07:30pm SSE 4-6 kts 23.2°c 1013.1 hPa 94% 0.0mm
12/07:00pm SE 5-7 kts 23.4°c 1012.7 hPa 93% 0.0mm
12/06:30pm SE 6-9 kts 23.4°c 1012.6 hPa 92% 0.0mm
12/06:00pm SE 5-7 kts 23.5°c 1012.5 hPa 91% 0.0mm
12/05:30pm SE 5-7 kts 23.8°c 1012.5 hPa 89% 0.0mm
12/05:00pm SE 6-8 kts 24.4°c 1012.2 hPa 84% 0.0mm
12/04:30pm SSE 5-8 kts 25.3°c 1012.1 hPa 81% 0.0mm
12/04:00pm SSE 6-10 kts 25.5°c 1012.1 hPa 80% 0.0mm
12/03:30pm SE 7-11 kts 25.9°c 1011.9 hPa 82% 0.0mm
12/03:00pm SE 8-11 kts 25.7°c 1011.9 hPa 81% 0.0mm
12/02:30pm SE 8-12 kts 25.9°c 1012.1 hPa 80% 0.0mm
12/02:00pm SSE 7-14 kts 26.0°c 1012.4 hPa 81% 0.0mm
12/01:30pm SSE 10-15 kts 25.8°c 1012.6 hPa 81% 0.0mm
12/01:00pm SE 9-14 kts 26.3°c 1012.9 hPa 81% 0.0mm
12/12:30pm SE 8-13 kts 25.9°c 1013.4 hPa 80% 0.0mm
12/12:00pm SE 8-12 kts 26.4°c 1013.9 hPa 80% 0.0mm
12/11:30am SE 8-12 kts 26.1°c 1014.5 hPa 81% 0.0mm
12/11:00am SSE 9-13 kts 25.2°c 1015.0 hPa 83% 0.0mm
12/10:30am SSE 7-11 kts 26.0°c 1015.2 hPa 85% 0.0mm
12/10:00am SSE 7-11 kts 25.6°c 1015.1 hPa 84% 0.0mm
12/09:48am SSE 6-11 kts 25.0°c 1015.3 hPa 84% 0.0mm
12/09:30am S 6-9 kts 25.5°c 1015.2 hPa 88% 0.0mm
12/09:00am S 7-10 kts 23.8°c 1015.1 hPa 94% 0.0mm
12/08:30am S 6-8 kts 22.7°c 1015.2 hPa 97% 0.0mm
12/08:00am SSW 5-8 kts 22.4°c 1014.9 hPa 99% 0.0mm
12/07:30am SSW 6-8 kts 21.6°c 1014.5 hPa 100% 0.0mm
12/07:00am SSW 6-8 kts 21.4°c 1014.1 hPa 100% 0.0mm
12/06:30am SSW 5-7 kts 21.5°c 1013.9 hPa 100% 0.0mm
12/06:00am SSW 5-7 kts 21.5°c 1013.6 hPa 100% 0.0mm
12/05:30am SW 6-8 kts 21.4°c 1013.5 hPa 100% 0.0mm
12/05:00am SW 5-7 kts 21.6°c 1013.5 hPa 100% 0.0mm
12/04:30am SSW 4-6 kts 22.0°c 1013.4 hPa 100% 0.0mm
12/04:00am SSW 6-7 kts 22.1°c 1013.4 hPa 100% 0.0mm
12/03:30am SSW 5-7 kts 22.0°c 1013.4 hPa 100% 0.0mm
12/03:00am SW 5-6 kts 22.0°c 1013.5 hPa 100% 0.0mm
12/02:30am SSW 5-6 kts 22.0°c 1013.6 hPa 100% 0.0mm
12/02:00am SSW 5-6 kts 21.8°c 1013.8 hPa 100% 0.0mm
12/01:30am SSW 4-5 kts 21.9°c 1014.2 hPa 100% 0.0mm
12/01:00am SSW 5-7 kts 22.0°c 1014.4 hPa 100% 0.0mm
12/12:49am SW 5-6 kts 21.9°c 1014.5 hPa 99% 0.0mm
12/12:30am SW 5-6 kts 22.1°c 1014.5 hPa 99% 0.0mm
12/12:27am SW 5-6 kts 22.1°c 1014.5 hPa 99% 0.0mm
12/12:00am SW 5-6 kts 22.4°c 1014.5 hPa 100% 0.0mm